📊 Raw Sensor Data

Showing records 40251 to 40275 of 84,960 total

ID Distance (ft) Battery V Battery A Int Temp (°F) Int Humid (%) Ext Temp (°F) Solar V RSSI SNR Time Stamp
44722 15.4 3.89 -5 74 51 74 0.00 -69 7 06/27/2025 09:45 PM
44721 15.4 3.89 -5 75 52 75 0.10 -69 8 06/27/2025 09:30 PM
44720 15.4 3.89 -5 76 54 75 0.10 -69 8 06/27/2025 09:15 PM
44719 15.4 3.89 -5 78 56 77 0.00 -69 8 06/27/2025 09:00 PM
44718 15.4 3.96 -5 81 58 78 2.20 -68 7 06/27/2025 08:45 PM
44717 15.5 3.89 -36 86 58 81 3.10 -68 8 06/27/2025 08:30 PM
44716 15.5 3.90 0 92 56 85 4.50 -69 7 06/27/2025 08:15 PM
44715 15.6 3.99 0 96 55 91 4.50 -69 7 06/27/2025 08:00 PM
44714 15.6 3.99 6 100 54 95 4.60 -69 8 06/27/2025 07:45 PM
44713 15.6 4.00 9 103 53 96 4.60 -69 6 06/27/2025 07:30 PM
44712 15.6 4.01 10 105 53 97 4.60 -69 9 06/27/2025 07:15 PM
44711 15.6 4.04 10 107 52 100 4.60 -68 8 06/27/2025 07:00 PM
44710 15.7 4.02 43 108 51 102 4.60 -69 8 06/27/2025 06:45 PM
44709 15.7 3.97 0 109 50 99 5.10 -69 7 06/27/2025 06:30 PM
44708 15.7 3.95 0 109 51 100 5.10 -71 8 06/27/2025 06:15 PM
44707 15.6 4.03 0 108 52 102 5.10 -69 8 06/27/2025 06:00 PM
44706 15.7 3.95 0 111 50 97 5.10 -70 8 06/27/2025 05:45 PM
44705 15.7 3.95 0 114 48 106 5.10 -69 8 06/27/2025 05:30 PM
44704 15.7 3.96 0 114 47 106 5.10 -70 8 06/27/2025 05:15 PM
44703 15.7 4.12 0 114 47 107 5.10 -69 8 06/27/2025 05:00 PM
44702 15.7 3.95 0 112 47 106 5.10 -69 8 06/27/2025 04:45 PM
44701 15.7 3.97 0 111 47 103 5.10 -70 8 06/27/2025 04:30 PM
44700 15.7 3.95 0 112 46 102 5.10 -71 7 06/27/2025 04:15 PM
44699 15.7 3.95 0 111 45 104 5.10 -69 8 06/27/2025 04:00 PM
44698 15.6 3.95 0 111 45 105 5.10 -71 7 06/27/2025 03:45 PM